QPF
0.08 0.09 0.10 0.10 0.08 0.08 0.05 0.03 0.03 0.02 0.03 0.04 0.05 0.06 0.07 0.05 0.03 0.02 0.02 0.04 0.04 0.03 0.02 0.02 0.02 0.02 0.02 0.02 0.02 0.02 0.02 0.02 0.02 0.02 0.02 0.02 0.01 0.01 0.01 0.01 0.01 0.01 0.02
0.07 0.08 0.09 0.07 0.06 0.05 0.03 0.02 0.02 0.02 0.02 0.02 0.03 0.03 0.03 0.04 0.03 0.03 0.03 0.04 0.04 0.03 0.02 0.02 0.03 0.03 0.02 0.03 0.02 0.02 0.02 0.02 0.02 0.03 0.02 0.02 0.02 0.02 0.01 0.01 0.01 0.01 0.01
0.06 0.06 0.07 0.07 0.06 0.04 0.03 0.03 0.03 0.03 0.04 0.03 0.03 0.02 0.02 0.05 0.05 0.04 0.04 0.02 0.02 0.03 0.03 0.03 0.03 0.03 0.04 0.04 0.03 0.03 0.03 0.02 0.02 0.02 0.02 0.02 0.02 0.02 0.03 0.03 0.02 0.02 0.02
0.05 0.04 0.05 0.06 0.05 0.03 0.04 0.03 0.04 0.04 0.04 0.04 0.04 0.04 0.05 0.07 0.05 0.04 0.03 0.03 0.02 0.03 0.04 0.05 0.05 0.05 0.06 0.06 0.05 0.04 0.04 0.03 0.02 0.03 0.02 0.02 0.03 0.03 0.03 0.03 0.03 0.03 0.02
0.04 0.04 0.05 0.05 0.05 0.04 0.05 0.05 0.05 0.05 0.05 0.05 0.05 0.07 0.07 0.09 0.08 0.05 0.04 0.03 0.03 0.03 0.04 0.04 0.05 0.06 0.07 0.08 0.07 0.07 0.06 0.05 0.03 0.03 0.03 0.03 0.02 0.03 0.03 0.04 0.04 0.04 0.04
0.06 0.03 0.03 0.04 0.05 0.06 0.05 0.07 0.08 0.07 0.07 0.07 0.07 0.07 0.06 0.07 0.07 0.06 0.05 0.05 0.05 0.06 0.05 0.04 0.05 0.04 0.05 0.07 0.07 0.08 0.08 0.07 0.06 0.04 0.03 0.04 0.03 0.03 0.03 0.03 0.04 0.04 0.04
0.04 0.03 0.02 0.02 0.03 0.03 0.04 0.04 0.05 0.07 0.08 0.08 0.09 0.08 0.06 0.07 0.09 0.08 0.08 0.08 0.06 0.06 0.06 0.07 0.07 0.03 0.02 0.03 0.04 0.05 0.07 0.09 0.07 0.05 0.04 0.06 0.07 0.06 0.04 0.04 0.04 0.04 0.04
0.03 0.02 0.03 0.02 0.02 0.02 0.03 0.03 0.05 0.07 0.07 0.06 0.07 0.05 0.05 0.07 0.08 0.09 0.10 0.11 0.10 0.07 0.06 0.07 0.07 0.04 0.02 0.02 0.03 0.04 0.04 0.06 0.05 0.05 0.05 0.05 0.05 0.04 0.04 0.04 0.04 0.04 0.04
0.03 0.03 0.04 0.03 0.02 0.01 0.02 0.03 0.04 0.05 0.05 0.05 0.06 0.04 0.03 0.04 0.06 0.09 0.07 0.06 0.07 0.07 0.06 0.06 0.07 0.05 0.04 0.02 0.03 0.03 0.03 0.04 0.04 0.05 0.06 0.05 0.04 0.04 0.05 0.05 0.05 0.04 0.05
0.03 0.04 0.03 0.03 0.02 0.02 0.02 0.04 0.04 0.05 0.04 0.03 0.04 0.04 0.04 0.03 0.05 0.06 0.07 0.05 0.03 0.03 0.04 0.05 0.05 0.04 0.04 0.03 0.02 0.02 0.02 0.02 0.02 0.03 0.04 0.04 0.04 0.04 0.04 0.04 0.04 0.04 0.06
0.04 0.04 0.03 0.02 0.01 0.02 0.02 0.03 0.03 0.03 0.02 0.02 0.02 0.03 0.04 0.04 0.05 0.04 0.04 0.05 0.05 0.03 0.03 0.03 0.03 0.03 0.03 0.03 0.03 0.03 0.03 0.03 0.02 0.02 0.02 0.02 0.03 0.03 0.03 0.03 0.03 0.04 0.05
0.06 0.07 0.04 0.02 0.01 0.01 0.02 0.02 0.03 0.03 0.03 0.02 0.02 0.02 0.03 0.03 0.03 0.03 0.03 0.03 0.03 0.02 0.02 0.02 0.02 0.03 0.04 0.04 0.05 0.05 0.04 0.04 0.04 0.03 0.02 0.03 0.03 0.03 0.03 0.04 0.04 0.05 0.05
0.09 0.07 0.04 0.02 0.01 0.01 0.01 0.01 0.02 0.03 0.03 0.02 0.01 0.02 0.03 0.03 0.04 0.03 0.02 0.02 0.02 0.02 0.02 0.02 0.02 0.02 0.02 0.03 0.03 0.04 0.04 0.04 0.03 0.03 0.03 0.02 0.03 0.03 0.03 0.03 0.04 0.04 0.05
0.05 0.05 0.04 0.02 0.02 0.01 0.01 0.02 0.02 0.02 0.02 0.03 0.03 0.02 0.02 0.02 0.03 0.03 0.03 0.02 0.02 0.02 0.03 0.03 0.03 0.02 0.02 0.01 0.02 0.02 0.02 0.03 0.03 0.03 0.02 0.02 0.03 0.02 0.02 0.02 0.02 0.02 0.03
0.04 0.05 0.04 0.03 0.02 0.02 0.02 0.03 0.03 0.02 0.02 0.02 0.02 0.03 0.02 0.03 0.03 0.03 0.03 0.03 0.04 0.04 0.04 0.02 0.03 0.02 0.02 0.02 0.01 0.01 0.01 0.03 0.03 0.01 0.01 0.01 0.01 0.01 0.01 0.01 0.01 0.01 0.01
0.03 0.04 0.04 0.04 0.03 0.03 0.04 0.03 0.02 0.02 0.02 0.01 0.01 0.02 0.02 0.03 0.05 0.05 0.04 0.04 0.03 0.03 0.03 0.03 0.03 0.02 0.03 0.02 0.03 0.02 0.01 0.01 0.02 0.02 0.01 0.01 0.01 0.01 0.01 0.01 0.01 0.02 0.01
0.03 0.03 0.03 0.03 0.02 0.03 0.03 0.02 0.02 0.03 0.02 0.02 0.01 0.01 0.02 0.02 0.03 0.04 0.06 0.05 0.03 0.03 0.02 0.02 0.02 0.02 0.02 0.03 0.02 0.02 0.02 0.01 0.01 0.01 0.01 0.01 0.01 0.01 0.01 0.01 0.02 0.03 0.02
0.03 0.03 0.03 0.03 0.02 0.03 0.04 0.03 0.03 0.03 0.04 0.03 0.03 0.02 0.02 0.03 0.06 0.05 0.06 0.07 0.04 0.03 0.02 0.02 0.02 0.02 0.02 0.02 0.02 0.02 0.02 0.01 0.01 0.01 0.01 0.01 0.01 0.01 0.01 0.00 0.01 0.01 0.02
0.03 0.03 0.04 0.03 0.04 0.04 0.04 0.04 0.05 0.05 0.05 0.04 0.04 0.03 0.02 0.02 0.05 0.06 0.04 0.03 0.03 0.04 0.04 0.02 0.02 0.03 0.02 0.02 0.02 0.02 0.01 0.01 0.01 0.01 0.01 0.01 0.01 0.01 0.00 0.00 0.00 0.00 0.00
0.03 0.03 0.03 0.04 0.04 0.05 0.05 0.06 0.07 0.07 0.07 0.06 0.05 0.05 0.04 0.03 0.02 0.02 0.01 0.01 0.02 0.02 0.03 0.02 0.02 0.03 0.02 0.02 0.01 0.02 0.02 0.01 0.01 0.01 0.01 0.01 0.01 0.01 0.01 0.01 0.00 0.00 0.00
0.04 0.03 0.02 0.02 0.03 0.03 0.04 0.05 0.05 0.06 0.06 0.05 0.04 0.03 0.02 0.01 0.01 0.01 0.00 0.00 0.01 0.01 0.01 0.01 0.01 0.02 0.02 0.01 0.01 0.02 0.03 0.03 0.01 0.01 0.01 0.01 0.01 0.01 0.01 0.01 0.01 0.01 0.01
0.03 0.03 0.02 0.02 0.03 0.03 0.04 0.04 0.03 0.03 0.03 0.04 0.03 0.02 0.01 0.01 0.01 0.01 0.01 0.01 0.01 0.01 0.00 0.00 0.01 0.02 0.01 0.01 0.01 0.01 0.03 0.03 0.02 0.01 0.01 0.01 0.01 0.01 0.01 0.01 0.01 0.01 0.01
0.04 0.04 0.03 0.02 0.02 0.02 0.04 0.03 0.03 0.03 0.02 0.01 0.01 0.01 0.00 0.01 0.01 0.01 0.01 0.02 0.01 0.01 0.01 0.01 0.01 0.01 0.01 0.01 0.02 0.02 0.03 0.02 0.02 0.01 0.01 0.01 0.01 0.01 0.01 0.01 0.01 0.01 0.01
0.05 0.05 0.04 0.04 0.03 0.03 0.05 0.04 0.04 0.04 0.03 0.02 0.02 0.01 0.01 0.02 0.01 0.01 0.01 0.01 0.01 0.01 0.01 0.01 0.01 0.01 0.01 0.01 0.01 0.02 0.02 0.02 0.02 0.01 0.01 0.02 0.03 0.03 0.02 0.01 0.01 0.01 0.01
0.06 0.05 0.04 0.05 0.06 0.07 0.09 0.08 0.07 0.05 0.04 0.05 0.05 0.05 0.04 0.03 0.02 0.01 0.01 0.01 0.01 0.01 0.01 0.01 0.01 0.01 0.01 0.01 0.01 0.02 0.02 0.02 0.02 0.02 0.02 0.02 0.03 0.03 0.03 0.02 0.02 0.02 0.02
0.03 0.04 0.04 0.04 0.06 0.09 0.11 0.10 0.11 0.10 0.09 0.09 0.07 0.05 0.05 0.03 0.02 0.02 0.02 0.02 0.01 0.01 0.01 0.01 0.01 0.01 0.02 0.02 0.02 0.02 0.02 0.03 0.03 0.02 0.02 0.03 0.03 0.03 0.03 0.03 0.03 0.02 0.02
MSLP
1015.79 1015.87 1015.87 1015.79 1015.66 1015.51 1015.37 1015.25 1015.15 1015.06 1014.97 1014.86 1014.74 1014.59 1014.45 1014.33 1014.25 1014.22 1014.27 1014.37 1014.52 1014.71 1014.91 1015.11 1015.29 1015.45 1015.59 1015.71 1015.82 1015.93 1016.05 1016.17 1016.30 1016.45 1016.61 1016.77 1016.94 1017.09 1017.23 1017.35 1017.44 1017.52 1017.60
1015.60 1015.69 1015.70 1015.63 1015.51 1015.37 1015.23 1015.09 1014.98 1014.88 1014.78 1014.67 1014.53 1014.37 1014.20 1014.04 1013.90 1013.81 1013.79 1013.83 1013.95 1014.13 1014.34 1014.57 1014.80 1015.01 1015.19 1015.33 1015.44 1015.52 1015.60 1015.68 1015.78 1015.91 1016.08 1016.27 1016.48 1016.69 1016.88 1017.04 1017.17 1017.27 1017.35
1015.32 1015.39 1015.41 1015.36 1015.28 1015.16 1015.04 1014.92 1014.82 1014.72 1014.61 1014.49 1014.35 1014.17 1013.96 1013.75 1013.55 1013.39 1013.28 1013.26 1013.31 1013.44 1013.64 1013.88 1014.14 1014.38 1014.59 1014.75 1014.86 1014.94 1014.99 1015.04 1015.13 1015.25 1015.43 1015.65 1015.91 1016.18 1016.43 1016.66 1016.84 1016.98 1017.08
1014.98 1015.03 1015.06 1015.05 1015.01 1014.95 1014.87 1014.79 1014.71 1014.62 1014.52 1014.39 1014.23 1014.04 1013.80 1013.54 1013.27 1013.03 1012.83 1012.71 1012.67 1012.73 1012.88 1013.09 1013.34 1013.59 1013.82 1014.00 1014.12 1014.20 1014.24 1014.29 1014.36 1014.48 1014.67 1014.92 1015.22 1015.54 1015.86 1016.15 1016.39 1016.59 1016.74
1014.62 1014.65 1014.69 1014.73 1014.76 1014.77 1014.76 1014.73 1014.68 1014.62 1014.52 1014.39 1014.23 1014.01 1013.75 1013.45 1013.12 1012.80 1012.50 1012.27 1012.12 1012.08 1012.14 1012.29 1012.49 1012.73 1012.95 1013.14 1013.27 1013.36 1013.41 1013.45 1013.52 1013.64 1013.83 1014.08 1014.40 1014.76 1015.12 1015.47 1015.77 1016.03 1016.24
1014.26 1014.27 1014.33 1014.42 1014.52 1014.61 1014.68 1014.71 1014.71 1014.67 1014.59 1014.47 1014.31 1014.09 1013.82 1013.49 1013.12 1012.73 1012.34 1012.00 1011.74 1011.57 1011.51 1011.56 1011.70 1011.89 1012.09 1012.27 1012.42 1012.51 1012.57 1012.62 1012.68 1012.78 1012.95 1013.19 1013.50 1013.85 1014.23 1014.61 1014.96 1015.27 1015.55
1013.90 1013.89 1013.96 1014.10 1014.27 1014.44 1014.58 1014.67 1014.71 1014.71 1014.65 1014.55 1014.41 1014.21 1013.95 1013.63 1013.25 1012.82 1012.36 1011.93 1011.54 1011.25 1011.07 1011.00 1011.04 1011.16 1011.32 1011.49 1011.64 1011.75 1011.82 1011.86 1011.90 1011.97 1012.10 1012.30 1012.56 1012.88 1013.24 1013.61 1013.98 1014.33 1014.66
1013.54 1013.50 1013.58 1013.75 1013.98 1014.20 1014.40 1014.54 1014.62 1014.64 1014.61 1014.54 1014.43 1014.28 1014.07 1013.79 1013.43 1012.99 1012.51 1012.01 1011.53 1011.12 1010.82 1010.63 1010.57 1010.62 1010.73 1010.87 1011.01 1011.12 1011.19 1011.23 1011.25 1011.28 1011.35 1011.47 1011.66 1011.91 1012.22 1012.56 1012.92 1013.28 1013.64
1013.16 1013.09 1013.17 1013.35 1013.60 1013.85 1014.07 1014.23 1014.33 1014.37 1014.37 1014.34 1014.29 1014.20 1014.07 1013.86 1013.56 1013.17 1012.70 1012.17 1011.64 1011.15 1010.74 1010.45 1010.29 1010.26 1010.32 1010.43 1010.56 1010.67 1010.74 1010.76 1010.75 1010.74 1010.74 1010.79 1010.89 1011.05 1011.28 1011.56 1011.88 1012.23 1012.59
1012.79 1012.68 1012.73 1012.89 1013.12 1013.36 1013.57 1013.72 1013.82 1013.86 1013.88 1013.89 1013.90 1013.89 1013.86 1013.75 1013.55 1013.24 1012.81 1012.31 1011.76 1011.22 1010.75 1010.38 1010.15 1010.05 1010.06 1010.14 1010.26 1010.36 1010.42 1010.44 1010.41 1010.36 1010.31 1010.28 1010.30 1010.38 1010.53 1010.75 1011.01 1011.32 1011.66
1012.44 1012.29 1012.29 1012.40 1012.58 1012.77 1012.93 1013.04 1013.11 1013.14 1013.17 1013.21 1013.27 1013.35 1013.41 1013.41 1013.32 1013.11 1012.77 1012.31 1011.79 1011.25 1010.75 1010.34 1010.06 1009.91 1009.89 1009.94 1010.04 1010.14 1010.20 1010.22 1010.19 1010.11 1010.03 1009.96 1009.93 1009.96 1010.04 1010.20 1010.40 1010.66 1010.96
1012.16 1011.96 1011.90 1011.94 1012.04 1012.15 1012.24 1012.28 1012.30 1012.29 1012.31 1012.36 1012.46 1012.60 1012.75 1012.85 1012.87 1012.76 1012.51 1012.13 1011.66 1011.15 1010.66 1010.24 1009.94 1009.77 1009.72 1009.75 1009.84 1009.94 1010.01 1010.04 1010.02 1009.96 1009.88 1009.81 1009.77 1009.77 1009.83 1009.95 1010.12 1010.32 1010.56
1011.99 1011.74 1011.60 1011.57 1011.58 1011.59 1011.59 1011.55 1011.49 1011.44 1011.42 1011.46 1011.57 1011.75 1011.94 1012.11 1012.21 1012.19 1012.03 1011.73 1011.33 1010.88 1010.43 1010.03 1009.74 1009.57 1009.50 1009.53 1009.62 1009.72 1009.80 1009.85 1009.86 1009.84 1009.80 1009.77 1009.76 1009.79 1009.87 1009.98 1010.12 1010.28 1010.46
1011.94 1011.64 1011.45 1011.34 1011.26 1011.18 1011.09 1010.96 1010.82 1010.70 1010.63 1010.63 1010.73 1010.89 1011.10 1011.29 1011.43 1011.47 1011.37 1011.15 1010.83 1010.44 1010.05 1009.70 1009.44 1009.28 1009.22 1009.25 1009.33 1009.44 1009.54 1009.62 1009.67 1009.70 1009.73 1009.77 1009.84 1009.93 1010.05 1010.18 1010.32 1010.46 1010.59
1012.02 1011.70 1011.46 1011.28 1011.12 1010.97 1010.79 1010.59 1010.37 1010.18 1010.04 1009.98 1010.02 1010.14 1010.30 1010.48 1010.62 1010.67 1010.62 1010.45 1010.19 1009.88 1009.56 1009.27 1009.05 1008.92 1008.88 1008.91 1009.00 1009.11 1009.22 1009.33 1009.43 1009.52 1009.63 1009.76 1009.91 1010.08 1010.27 1010.45 1010.61 1010.73 1010.82
1012.19 1011.86 1011.59 1011.37 1011.16 1010.95 1010.71 1010.44 1010.16 1009.89 1009.68 1009.55 1009.50 1009.54 1009.63 1009.74 1009.84 1009.87 1009.82 1009.69 1009.48 1009.24 1008.99 1008.77 1008.61 1008.52 1008.51 1008.55 1008.63 1008.75 1008.87 1008.99 1009.13 1009.29 1009.46 1009.67 1009.91 1010.16 1010.42 1010.65 1010.83 1010.96 1011.03
1012.43 1012.08 1011.80 1011.55 1011.32 1011.07 1010.78 1010.47 1010.13 1009.81 1009.52 1009.30 1009.15 1009.09 1009.08 1009.10 1009.12 1009.11 1009.04 1008.92 1008.76 1008.57 1008.39 1008.24 1008.14 1008.10 1008.12 1008.18 1008.27 1008.38 1008.50 1008.64 1008.80 1008.99 1009.22 1009.49 1009.79 1010.10 1010.41 1010.68 1010.89 1011.03 1011.10
1012.64 1012.30 1012.01 1011.75 1011.50 1011.22 1010.91 1010.56 1010.18 1009.80 1009.45 1009.14 1008.90 1008.73 1008.61 1008.53 1008.46 1008.38 1008.28 1008.16 1008.03 1007.89 1007.77 1007.69 1007.65 1007.66 1007.71 1007.79 1007.89 1008.01 1008.13 1008.27 1008.44 1008.64 1008.90 1009.20 1009.53 1009.88 1010.22 1010.51 1010.74 1010.89 1010.97
1012.79 1012.44 1012.15 1011.87 1011.60 1011.31 1010.98 1010.60 1010.18 1009.76 1009.34 1008.96 1008.63 1008.36 1008.14 1007.96 1007.81 1007.67 1007.54 1007.41 1007.29 1007.19 1007.12 1007.10 1007.12 1007.18 1007.26 1007.37 1007.48 1007.60 1007.73 1007.87 1008.04 1008.25 1008.51 1008.81 1009.15 1009.50 1009.84 1010.13 1010.37 1010.54 1010.64
1012.82 1012.47 1012.15 1011.87 1011.57 1011.25 1010.89 1010.47 1010.03 1009.56 1009.09 1008.65 1008.25 1007.91 1007.61 1007.35 1007.13 1006.94 1006.78 1006.63 1006.52 1006.45 1006.42 1006.43 1006.50 1006.59 1006.71 1006.85 1006.98 1007.12 1007.25 1007.40 1007.58 1007.79 1008.04 1008.33 1008.66 1008.99 1009.31 1009.60 1009.84 1010.02 1010.15
1012.74 1012.36 1012.02 1011.69 1011.36 1011.00 1010.59 1010.14 1009.65 1009.14 1008.64 1008.15 1007.71 1007.31 1006.96 1006.66 1006.40 1006.17 1005.98 1005.83 1005.71 1005.64 1005.63 1005.67 1005.75 1005.87 1006.02 1006.17 1006.33 1006.49 1006.65 1006.82 1007.01 1007.23 1007.49 1007.77 1008.08 1008.39 1008.70 1008.97 1009.20 1009.39 1009.56
1012.54 1012.13 1011.75 1011.38 1010.99 1010.57 1010.10 1009.59 1009.06 1008.51 1007.97 1007.46 1007.00 1006.58 1006.21 1005.89 1005.61 1005.37 1005.16 1004.99 1004.86 1004.79 1004.76 1004.79 1004.87 1004.99 1005.15 1005.32 1005.50 1005.69 1005.89 1006.10 1006.32 1006.57 1006.84 1007.13 1007.44 1007.74 1008.03 1008.29 1008.53 1008.74 1008.94
1012.26 1011.82 1011.40 1010.96 1010.51 1010.01 1009.47 1008.90 1008.31 1007.73 1007.16 1006.64 1006.17 1005.76 1005.40 1005.09 1004.81 1004.56 1004.35 1004.16 1004.01 1003.90 1003.83 1003.83 1003.87 1003.97 1004.11 1004.29 1004.49 1004.71 1004.95 1005.21 1005.49 1005.78 1006.10 1006.42 1006.74 1007.05 1007.34 1007.61 1007.86 1008.10 1008.35
1011.95 1011.49 1011.01 1010.52 1009.98 1009.41 1008.79 1008.15 1007.51 1006.89 1006.31 1005.79 1005.33 1004.94 1004.60 1004.31 1004.05 1003.81 1003.58 1003.37 1003.18 1003.02 1002.90 1002.83 1002.82 1002.87 1002.97 1003.13 1003.34 1003.58 1003.87 1004.19 1004.53 1004.89 1005.26 1005.63 1006.00 1006.34 1006.66 1006.95 1007.23 1007.50 1007.80
1011.65 1011.16 1010.65 1010.10 1009.50 1008.85 1008.16 1007.46 1006.76 1006.11 1005.51 1004.99 1004.55 1004.19 1003.88 1003.61 1003.37 1003.13 1002.89 1002.65 1002.42 1002.19 1002.00 1001.85 1001.77 1001.75 1001.80 1001.93 1002.13 1002.39 1002.72 1003.09 1003.50 1003.94 1004.38 1004.82 1005.24 1005.63 1006.00 1006.33 1006.65 1006.96 1007.29
1011.38 1010.89 1010.35 1009.76 1009.10 1008.39 1007.64 1006.88 1006.15 1005.46 1004.85 1004.33 1003.90 1003.54 1003.25 1003.00 1002.77 1002.53 1002.27 1002.00 1001.71 1001.43 1001.16 1000.94 1000.77 1000.68 1000.69 1000.78 1000.97 1001.24 1001.60 1002.02 1002.49 1003.00 1003.51 1004.02 1004.51 1004.96 1005.38 1005.76 1006.12 1006.47 1006.84
Thickness
5757 5755 5754 5754 5753 5753 5753 5752 5751 5752 5751 5751 5751 5750 5749 5748 5747 5747 5746 5746 5745 5743 5742 5741 5739 5737 5736 5734 5733 5731 5730 5728 5726 5725 5723 5722 5721 5720 5718 5717 5716 5715 5714
5758 5756 5755 5754 5753 5753 5753 5752 5752 5751 5751 5750 5750 5749 5749 5748 5746 5746 5746 5745 5744 5743 5742 5740 5738 5737 5736 5734 5733 5731 5729 5727 5726 5724 5723 5721 5720 5718 5717 5716 5715 5714 5713
5758 5757 5756 5755 5754 5753 5752 5751 5751 5750 5750 5749 5748 5748 5748 5746 5746 5745 5744 5744 5743 5742 5741 5739 5738 5737 5735 5734 5732 5730 5728 5727 5726 5724 5723 5721 5719 5718 5716 5715 5714 5713 5712
5758 5757 5756 5755 5755 5754 5752 5751 5749 5748 5747 5746 5746 5746 5746 5746 5745 5744 5743 5742 5742 5741 5740 5739 5737 5736 5734 5733 5731 5730 5728 5727 5725 5724 5722 5720 5719 5717 5715 5714 5712 5711 5710
5758 5757 5756 5756 5755 5754 5752 5751 5749 5747 5744 5744 5744 5744 5744 5744 5743 5743 5742 5742 5741 5740 5739 5738 5736 5735 5733 5732 5730 5729 5728 5727 5725 5723 5722 5720 5718 5716 5715 5713 5711 5710 5709
5759 5758 5757 5756 5755 5753 5751 5750 5748 5747 5745 5744 5743 5741 5741 5742 5742 5742 5741 5740 5739 5738 5737 5736 5735 5734 5732 5731 5730 5729 5727 5726 5725 5723 5721 5719 5717 5715 5714 5712 5711 5709 5708
5761 5759 5757 5756 5755 5753 5751 5750 5748 5745 5743 5743 5738 5735 5736 5739 5740 5740 5740 5739 5738 5737 5736 5735 5734 5733 5731 5730 5729 5728 5727 5726 5724 5722 5720 5718 5716 5714 5713 5711 5710 5709 5707
5762 5760 5758 5756 5755 5753 5751 5750 5748 5744 5743 5743 5737 5730 5726 5729 5734 5738 5738 5737 5737 5736 5735 5734 5732 5731 5730 5729 5728 5727 5725 5725 5723 5722 5719 5717 5715 5713 5712 5710 5709 5707 5706
5762 5761 5759 5757 5755 5753 5751 5750 5748 5745 5741 5741 5740 5733 5725 5721 5726 5731 5734 5735 5734 5733 5732 5732 5731 5729 5728 5727 5726 5725 5724 5723 5722 5720 5718 5716 5714 5712 5710 5709 5707 5706 5704
5763 5762 5760 5758 5756 5754 5752 5751 5750 5747 5744 5739 5739 5739 5736 5733 5725 5723 5727 5730 5732 5731 5731 5731 5729 5727 5726 5724 5722 5721 5720 5719 5718 5717 5715 5713 5711 5710 5708 5707 5705 5703 5702
5764 5763 5762 5760 5758 5756 5754 5752 5750 5748 5746 5742 5739 5737 5735 5734 5732 5725 5721 5724 5726 5728 5729 5728 5727 5725 5723 5721 5720 5718 5717 5715 5714 5713 5711 5710 5708 5707 5705 5704 5702 5701 5699
5764 5764 5763 5761 5759 5757 5755 5753 5751 5749 5747 5744 5742 5740 5736 5733 5729 5726 5722 5720 5720 5723 5725 5725 5724 5722 5720 5718 5717 5715 5714 5712 5711 5709 5707 5706 5704 5703 5701 5700 5698 5697 5696
5763 5763 5763 5761 5760 5759 5757 5755 5752 5750 5748 5746 5744 5742 5740 5738 5736 5731 5725 5720 5718 5720 5721 5721 5721 5720 5718 5716 5714 5712 5711 5709 5707 5705 5703 5702 5700 5699 5697 5695 5694 5693 5692
5765 5765 5763 5762 5760 5759 5757 5756 5753 5751 5750 5747 5745 5743 5740 5739 5737 5734 5729 5722 5716 5715 5716 5717 5718 5717 5716 5714 5712 5710 5707 5705 5703 5701 5699 5698 5696 5694 5692 5690 5689 5688 5686
5767 5765 5764 5762 5760 5759 5757 5756 5753 5751 5749 5747 5745 5743 5741 5739 5738 5736 5733 5728 5719 5712 5711 5714 5714 5715 5714 5712 5710 5707 5705 5703 5700 5698 5696 5694 5692 5690 5688 5686 5684 5683 5681
5768 5765 5763 5762 5760 5758 5757 5754 5752 5751 5748 5746 5744 5742 5740 5739 5737 5735 5732 5729 5725 5718 5712 5713 5713 5713 5711 5709 5706 5704 5701 5699 5697 5694 5692 5690 5687 5685 5683 5681 5679 5677 5676
5767 5765 5763 5761 5759 5757 5755 5753 5751 5749 5746 5744 5743 5741 5739 5738 5735 5733 5731 5727 5724 5719 5712 5711 5711 5710 5707 5704 5702 5699 5696 5694 5692 5690 5688 5685 5683 5680 5678 5676 5674 5672 5670
5766 5764 5762 5760 5758 5756 5754 5752 5749 5748 5745 5742 5741 5739 5737 5735 5732 5730 5728 5725 5722 5719 5713 5708 5707 5704 5702 5700 5697 5694 5691 5689 5687 5685 5683 5680 5678 5675 5673 5671 5669 5666 5665
5764 5762 5760 5757 5756 5755 5753 5751 5749 5746 5744 5741 5739 5736 5734 5731 5728 5726 5723 5721 5719 5717 5712 5707 5703 5700 5697 5695 5691 5689 5686 5684 5682 5680 5678 5675 5673 5670 5668 5666 5664 5662 5659
5762 5760 5758 5756 5755 5753 5752 5749 5747 5744 5742 5739 5737 5735 5732 5729 5726 5724 5721 5718 5715 5711 5708 5703 5699 5696 5692 5690 5686 5682 5679 5678 5676 5675 5673 5670 5667 5665 5663 5661 5659 5656 5654
5760 5758 5755 5753 5752 5751 5749 5746 5744 5741 5738 5736 5734 5732 5730 5728 5725 5722 5718 5714 5711 5706 5702 5697 5693 5690 5686 5683 5681 5679 5675 5672 5670 5669 5666 5664 5662 5660 5658 5656 5653 5651 5649
5756 5754 5752 5750 5748 5748 5747 5744 5741 5738 5735 5732 5729 5727 5726 5723 5721 5718 5715 5713 5709 5704 5698 5694 5689 5686 5684 5681 5679 5675 5670 5665 5662 5664 5660 5659 5657 5654 5653 5651 5649 5647 5644
5752 5750 5748 5746 5744 5744 5743 5740 5737 5734 5731 5728 5725 5722 5721 5720 5716 5713 5710 5708 5706 5703 5700 5695 5689 5686 5682 5680 5676 5671 5667 5663 5662 5661 5656 5653 5651 5649 5649 5647 5645 5642 5639
5747 5745 5743 5742 5740 5740 5738 5735 5733 5729 5726 5724 5721 5718 5715 5713 5711 5708 5704 5701 5699 5697 5696 5693 5689 5686 5683 5680 5675 5671 5666 5661 5658 5656 5653 5648 5647 5645 5645 5643 5641 5638 5635
5742 5740 5739 5737 5734 5734 5731 5728 5725 5722 5720 5718 5716 5713 5711 5708 5706 5703 5698 5694 5692 5691 5690 5689 5687 5684 5680 5677 5672 5665 5660 5654 5651 5649 5647 5644 5643 5640 5638 5637 5636 5633 5629
5737 5735 5733 5732 5730 5728 5726 5723 5720 5716 5713 5711 5710 5708 5706 5704 5701 5698 5693 5689 5686 5685 5683 5682 5679 5677 5675 5672 5668 5663 5658 5651 5646 5643 5643 5639 5637 5633 5630 5631 5629 5626 5623